Home   Weather   Eau Claire   Past weeks

Flag for USA Past Weather in Eau Claire, Wisconsin, USA — Yesterday and Last 2 Weeks

Now
30 °F

Ice fog.


Feels Like: 26 °F
Forecast: 31 / 38 °F
Wind: 3 mph from Northeast

Location: Eau Claire County Airport

Current Time: Jan 19, 2017 at 9:21:37 am

Latest Report: Jan 19, 2017 at 8:56 am


Visibility: 1 mi

Pressure: 29.90 "Hg

Humidity: 100%

Dew Point: 30 °F

Location of Eau ClaireLocation

Past Weather in Eau Claire — Graph

°F

Eau Claire Temperature Yesterday

Maximum temperature yesterday: 39 °F (at 2:56 pm)
Minimum temperature yesterday: 24 °F (at 10:23 pm)
Average temperature yesterday: 31 °F

High & Low Weather Summary for the Past Weeks

 TemperatureHumidityPressure
High39 °F (Jan 18, 2:56 pm)100% (Jan 16, 11:37 pm)30.92 "Hg (Jan 16, 11:37 pm)
Low-14 °F (Jan 6, 7:56 am)51% (Jan 12, 12:56 pm)29.26 "Hg (Jan 10, 12:56 pm)
Average12 °F79%30.16 "Hg
* Reported Jan 4 7:56 am — Jan 19 7:56 am, Eau Claire, Weather by CustomWeather, © 2017

Note: Actual official high and low records may vary slightly from our data, if they occured in-between our weather recording intervals... More about our weather records

Advertising

Eau Claire Weather History for the Previous 24 Hours

Scroll right to see more
 ConditionsComfort  
Time TempWeatherWind HumidityBarometerVisibility
7:56 am
Thu, Jan 19
28 °FIce fog.No wind100%29.90 "Hg1 mi
7:35 am29 °FIce fog.3 mph100%29.87 "Hg1 mi
7:18 am30 °FIce fog.3 mph96%29.87 "Hg2 mi
6:56 am29 °FIce fog.5 mph100%29.90 "Hg3 mi
5:56 am28 °FIce fog.No wind100%29.90 "Hg3 mi
5:33 am29 °FIce fog.5 mph96%29.87 "Hg3 mi
4:59 am29 °FIce fog.5 mph100%29.86 "Hg0 mi
4:27 am31 °FIce fog.3 mph100%29.86 "Hg2 mi
3:56 am31 °FIce fog.7 mph100%29.90 "Hg2 mi
3:36 am31 °FIce fog.7 mph96%29.87 "Hg1 mi
2:56 am29 °FIce fog.6 mph100%29.91 "Hg0 mi
2:07 am26 °FIce fog.6 mph100%29.88 "Hg0 mi
1:33 am27 °FIce fog.6 mph96%29.87 "Hg2 mi
12:56 am26 °FIce fog.No wind96%29.90 "Hg1 mi
12:26 am26 °FIce fog.No wind96%29.88 "Hg1 mi
12:19 am26 °FIce fog.5 mph96%29.88 "Hg1 mi
12:08 am25 °FIce fog.3 mph96%29.87 "Hg0 mi
11:56 pm
Wed, Jan 18
24 °FIce fog.5 mph96%29.91 "Hg1 mi
10:56 pm25 °FIce fog.No wind96%29.91 "Hg0 mi
10:23 pm24 °FIce fog.No wind100%29.88 "Hg0 mi
10:04 pm27 °FIce fog.No wind96%29.88 "Hg1 mi
9:28 pm27 °FIce fog.3 mph96%29.89 "Hg2 mi
8:56 pm30 °FIce fog.3 mph92%29.92 "Hg4 mi
7:56 pm31 °FIce fog.5 mph92%29.93 "Hg5 mi
6:56 pm32 °FIce fog.8 mph88%29.93 "Hg6 mi
5:56 pm34 °FFog.6 mph85%29.92 "Hg6 mi
4:56 pm36 °FClear.8 mph79%29.90 "Hg5 mi
3:56 pm38 °FSunny.9 mph76%29.91 "Hg6 mi
2:56 pm39 °FSunny.10 mph70%29.91 "Hg7 mi
1:56 pm38 °FSunny.12 mph73%29.91 "Hg7 mi
12:56 pm37 °FSunny.14 mph73%29.93 "Hg9 mi
11:56 am36 °FSunny.9 mph75%29.94 "Hg9 mi
10:56 am34 °FSunny.15 mph79%29.93 "Hg9 mi
9:56 am30 °FSunny.10 mph85%29.97 "Hg7 mi
Weather by CustomWeather, © 2017

See weather overviewHow to use our weather pages